Location: Dillon
(41.1766°N, 107.0923°W)
Time: 11:42:13
(UTC+00:00)

VELOX 1 - Visible Passes

Search period start: 28 June 2022 00:00
Search period end: 08 July 2022 00:00
Orbit: 625 x 638 km, 98.4° (Epoch: 24 June)

Date Brightness Start Highest point End Pass type
(mag) Time Alt. Az. Time Alt. Az. Time Alt. Az.
29 Jun ? 10:14:57 10° E 10:16:33 12° ENE 10:18:10 10° NE visible
30 Jun ? 10:34:09 10° ESE 10:37:12 19° ENE 10:40:17 10° NNE visible
01 Jul ? 10:54:07 10° SE 10:57:55 29° ENE 11:01:45 10° N visible
04 Jul ? 10:22:21 10° E 10:24:38 14° ENE 10:26:54 10° NNE visible
05 Jul ? 10:41:54 10° ESE 10:45:16 22° ENE 10:48:39 10° NNE visible
06 Jul ? 11:02:00 10° SE 11:05:59 35° ENE 11:10:00 10° N visible
